Location: Cape Cod Imaging Station
(41.7417°N, 70.1583°W)
Time: 17:31:51
(UTC-05:00)

Envisat - Visible Passes

Search period start: 23 February 2018 00:00
Search period end: 05 March 2018 00:00
Orbit: 764 x 766 km, 98.2° (Epoch: 23 February)

Date Brightness Start Highest point End Pass type
(mag) Time Alt. Az. Time Alt. Az. Time Alt. Az.
23 Feb 3.2 19:19:49 10° S 19:24:52 71° WSW 19:29:57 10° NNW visible
24 Feb 3.1 18:43:17 10° SSE 18:48:12 53° ENE 18:53:09 10° N visible
24 Feb 5.5 20:24:06 10° SW 20:27:32 18° W 20:30:59 10° NW visible
25 Feb 4.0 18:07:38 10° ESE 18:11:44 25° ENE 18:15:50 10° NNE visible
25 Feb 4.2 19:45:47 10° SSW 19:50:31 40° W 19:55:18 10° NNW visible
26 Feb 2.9 19:08:39 10° SSE 19:13:44 88° WSW 19:18:50 10° NNW visible
27 Feb 3.3 18:32:22 10° SE 18:37:07 42° ENE 18:41:54 10° N visible
27 Feb 5.2 20:12:19 10° SW 20:16:17 23° W 20:20:17 10° NW visible
28 Feb 4.3 17:57:02 10° ESE 18:00:42 21° ENE 18:04:23 10° NNE visible
28 Feb 3.8 19:34:26 10° S 19:39:21 50° W 19:44:18 10° NNW visible
01 Mar 2.9 18:57:33 10° SSE 19:02:36 74° ENE 19:07:41 10° N visible
01 Mar 5.8 20:39:54 10° WSW 20:42:09 13° W 20:44:25 10° WNW visible
02 Mar 3.6 18:21:32 10° SE 18:26:03 34° ENE 18:30:36 10° N visible
02 Mar 4.8 20:00:42 10° SSW 20:05:04 29° W 20:09:28 10° NW visible
03 Mar 3.4 19:23:09 10° S 19:28:11 64° WSW 19:33:15 10° NNW visible
04 Mar 3.0 18:46:32 10° SSE 18:51:30 58° ENE 18:56:29 10° N visible
04 Mar 5.6 20:27:43 10° SW 20:30:53 17° W 20:34:04 10° NW visible
